Simultaneous Nadir Overpasses (SNOs) Predictions

Prediction of SNOs between METOP-C and LANDSAT-8 Satellite Orbit:

Table of predicted SNOs for the next 14.0 days since TLE Epoch: 5/7/2022
Index Date (METOP-C) Time (METOP-C) Lat,Lon (METOP-C) SZA (METOP-C ) Date (LANDSAT-8) Time (LANDSAT-8) Lat,Lon (LANDSAT-8) SZA (LANDSAT-8 ) Distance(km) Time Diff (sec)
1 05/08/2022 09:46:58 81.16, 73.80 66.31 05/08/2022 09:47:13 81.16, 73.73 66.30 1.23 15
2 05/08/2022 10:37:36 -81.18,-118.15 113.62 05/08/2022 10:36:39 -81.17,-118.32 113.67 2.96 57
3 05/11/2022 05:21:18 81.16, 140.31 65.58 05/11/2022 05:21:29 81.17, 140.39 65.60 1.46 11
4 05/11/2022 06:11:56 -81.19, -51.59 114.33 05/11/2022 06:10:55 -81.19, -51.64 114.36 1.00 61
5 05/14/2022 00:55:39 81.15,-153.61 64.84 05/14/2022 00:55:46 81.15,-153.46 64.86 2.60 7
6 05/14/2022 01:46:17 -81.18, 14.55 115.06 05/14/2022 01:45:12 -81.17, 14.53 115.10 0.57 65
7 05/16/2022 20:29:57 81.16, -86.84 64.23 05/16/2022 20:30:00 81.17, -86.71 64.25 2.43 3
8 05/16/2022 21:20:35 -81.19, 81.38 115.67 05/16/2022 21:19:26 -81.19, 81.31 115.71 1.36 69
9 05/19/2022 15:13:38 -81.14, 171.42 116.49 05/19/2022 15:14:51 -81.14, 171.53 116.45 1.98 73
10 05/19/2022 16:04:17 81.16, -20.51 63.60 05/19/2022 16:04:16 81.16, -20.46 63.60 0.88 1



Historial Predications of SNOs between METOP-C and LANDSAT-8
